S-NET A

Last updated on Sun Jun 21 2026 00:03:22 GMT+0000 (Coordinated Universal Time)

1 43188U 18014J 26171.29766920 .00004140 00000+0 21459-3 0 9998 2 43188 97.5373 76.2647 0008975 16.0073 344.1441 15.16704943459232
UTC large
Height (km)
Speed (km/s)
/
Latitude / Longitude
Inclination (degrees)
Orbital Period (minutes)
Azimuth
Elevation
Range (km)
Doppler Factor

Next 0 passes for location: London (51.5072 / 0.1276)

No passes found over London.
S-NET A